Lapse_Rate
2.5 1.0 0.2 0.5 0.7 -0.2 -0.2 0.3 0.8 1.3 3.3 4.3 3.9 3.6 3.9 5.4 5.2 5.2 5.1 4.7 4.9 4.5 4.8 4.6 5.5 5.9 4.6 4.5 4.4 3.6 4.0 3.5 3.0 3.3 1.7 2.2 1.5 3.0 2.4 5.4 5.7 5.7 5.3
3.5 2.0 0.9 1.1 1.8 0.9 0.6 1.2 2.3 3.2 3.2 3.2 2.6 3.6 5.2 4.6 4.4 3.9 3.7 3.5 3.8 4.2 4.6 5.2 5.8 6.3 6.4 6.6 6.5 6.5 5.4 5.2 2.8 3.8 3.5 4.1 2.9 1.9 2.3 2.3 2.8 4.2 6.2
5.1 3.6 2.7 2.3 1.5 1.3 2.1 3.6 4.5 3.8 3.2 2.6 3.8 3.9 4.0 3.6 3.5 3.0 3.1 3.0 3.2 3.4 3.6 4.3 4.8 5.2 5.7 6.1 6.4 6.8 7.0 6.6 6.1 4.0 5.7 4.4 4.3 4.5 3.0 2.0 3.1 3.6 4.3
5.8 5.2 5.0 4.4 4.7 3.8 4.5 5.0 5.2 5.0 4.5 4.6 4.1 3.7 4.1 4.4 2.8 2.9 3.1 3.6 3.5 3.9 4.2 4.3 4.5 4.5 4.8 5.2 5.9 6.5 6.9 7.3 6.8 5.9 4.9 5.1 5.4 5.9 4.3 3.7 2.5 3.0 3.1
5.7 5.7 5.6 5.3 4.4 3.5 4.1 4.0 4.0 3.6 3.2 3.0 3.3 3.8 3.4 3.1 3.3 3.6 3.9 4.0 3.9 3.9 3.8 3.9 4.1 4.2 4.4 4.5 4.7 5.0 6.0 6.9 7.5 8.3 8.5 6.0 6.5 5.5 4.9 6.4 5.0 4.2 4.1
6.8 6.1 5.6 4.1 3.6 3.5 3.6 3.5 3.7 3.3 3.4 3.5 3.3 3.6 4.0 3.8 3.9 3.7 3.4 3.8 3.7 3.6 3.8 4.1 4.1 4.0 4.1 4.1 4.3 4.5 4.9 6.2 8.3 8.7 8.9 8.4 7.8 7.3 6.3 6.3 6.8 6.0 5.6
6.8 5.8 5.0 4.8 3.9 3.8 3.7 3.7 4.1 3.3 3.2 3.2 3.5 3.7 3.6 3.3 3.4 3.5 3.8 4.1 4.5 4.4 4.3 4.1 3.6 3.8 3.9 4.0 4.1 4.5 5.3 6.1 8.1 8.1 8.2 8.6 8.6 8.9 8.5 6.9 7.0 6.6 5.5
6.5 5.8 5.4 4.8 4.3 3.9 4.1 4.0 4.2 3.5 3.7 3.9 4.0 3.7 3.5 3.7 3.9 4.1 4.4 4.6 4.8 4.9 4.6 3.7 3.4 3.2 3.5 3.8 4.6 5.7 6.1 6.8 7.5 7.7 7.9 7.6 8.6 9.2 8.6 8.4 8.3 7.1 6.9
6.7 5.7 5.0 4.6 4.4 4.1 3.7 3.7 4.2 4.2 4.3 4.3 3.9 3.9 3.8 3.9 4.2 4.3 4.4 4.6 4.1 4.2 3.9 4.0 4.1 4.5 4.5 3.9 5.3 7.7 7.9 7.4 7.8 7.7 7.8 8.3 8.2 8.3 8.8 8.9 8.6 7.6 6.9
7.0 5.8 5.0 4.5 4.4 4.0 3.3 3.8 4.6 5.0 4.7 4.2 4.0 4.1 3.9 4.2 4.5 4.5 4.1 3.8 3.4 3.4 3.2 3.0 3.5 4.4 5.3 6.4 8.0 7.5 7.2 7.3 7.0 6.7 7.2 7.7 8.0 7.8 8.1 8.3 8.6 8.7 7.6
6.2 5.3 5.2 4.5 3.9 3.7 3.8 3.9 4.6 5.0 4.4 4.2 3.8 3.6 4.0 4.0 4.0 3.5 3.3 2.9 2.4 2.1 1.9 2.0 2.5 3.8 6.8 7.9 7.8 7.5 7.6 7.2 7.1 7.1 7.3 7.5 7.7 8.1 8.0 8.1 8.7 8.7 8.6
7.1 5.9 4.7 3.5 3.2 3.6 4.1 4.4 4.4 4.7 4.2 3.6 3.3 3.4 3.4 3.6 3.2 2.5 2.3 1.9 1.4 1.5 1.7 2.7 4.0 6.3 6.9 7.2 7.5 7.1 7.3 7.3 7.1 7.3 7.4 7.5 7.7 7.4 6.9 6.9 7.9 8.4 8.0
7.4 5.8 4.4 3.7 3.3 4.0 4.2 4.6 4.5 4.5 3.7 3.2 3.1 3.3 3.4 3.2 2.6 2.2 2.1 2.3 2.7 2.8 3.3 4.2 5.7 6.2 6.5 6.8 6.4 6.7 6.9 7.0 6.9 6.9 6.8 6.9 7.1 7.0 6.9 7.0 7.3 7.1 7.5
6.5 5.2 4.4 3.9 3.7 4.0 4.2 2.9 4.3 3.7 3.2 3.0 3.4 3.5 3.3 2.7 2.3 2.2 1.9 2.0 2.2 2.4 3.1 3.9 5.3 6.1 5.7 5.6 5.7 6.2 6.9 6.6 6.5 6.3 6.5 6.7 6.8 6.7 6.8 7.1 6.9 7.1 7.2
6.6 5.1 4.0 3.8 4.4 5.0 4.5 4.6 4.3 3.4 2.8 3.2 3.3 3.0 2.4 2.0 1.6 1.6 1.8 1.4 1.5 2.7 3.9 4.3 4.7 4.1 3.9 3.9 5.4 5.5 5.2 5.0 4.7 4.7 5.0 5.0 5.1 5.1 5.2 6.6 6.7 6.7 7.0
6.8 6.1 4.4 4.2 4.9 5.0 5.3 4.5 4.2 3.4 2.8 2.8 2.0 1.8 1.5 1.5 1.4 1.5 1.7 1.6 2.1 3.0 3.5 3.9 3.5 3.4 3.6 4.1 4.2 4.9 4.9 4.5 4.9 5.0 4.8 4.6 4.8 4.3 4.4 4.6 5.3 6.7 6.7
6.2 4.3 4.6 5.0 5.4 5.4 4.5 4.6 4.1 2.8 2.5 2.3 0.5 0.1 1.3 0.2 0.9 1.4 1.5 2.4 2.6 3.1 3.2 3.1 3.3 3.2 3.5 3.8 4.4 4.7 5.1 5.0 4.7 4.7 4.1 4.0 4.3 4.0 4.6 4.4 3.8 4.5 5.2
4.7 4.0 4.7 5.4 5.5 4.9 4.2 3.2 2.5 2.2 2.1 2.4 2.5 1.7 0.9 0.2 0.2 0.5 1.0 1.8 2.5 2.9 3.1 3.0 3.2 3.0 3.3 4.4 4.2 4.4 4.2 4.0 3.9 3.7 3.2 3.4 3.2 3.7 3.7 4.3 4.5 4.1 5.1
3.7 3.7 5.2 5.7 4.6 3.9 2.8 2.6 2.2 2.4 2.5 2.3 1.3 0.9 1.3 0.7 1.0 1.5 2.2 2.7 2.7 3.0 2.9 3.3 3.5 3.5 3.6 4.0 4.3 4.6 3.7 3.9 3.6 3.1 2.8 3.2 3.0 2.8 3.3 2.1 2.9 4.2 4.7
4.1 4.2 4.4 4.2 3.7 2.7 2.1 2.3 2.6 2.4 1.8 0.8 0.7 1.2 1.4 2.0 2.2 2.4 2.6 2.8 3.3 3.4 3.7 3.9 4.1 3.8 3.6 3.6 4.6 3.8 4.1 3.8 3.8 3.4 3.0 3.3 3.2 2.6 2.5 2.3 2.4 3.2 2.4
3.2 3.6 4.0 3.7 3.4 1.4 1.7 2.0 0.8 1.0 0.5 0.5 0.6 0.9 1.7 2.7 2.6 2.6 3.1 3.1 3.6 3.4 4.0 4.2 4.3 4.0 3.8 3.6 3.8 3.2 3.8 3.6 3.9 3.8 3.5 3.7 3.4 3.3 2.9 1.6 1.7 1.7 2.2
3.6 2.9 2.9 2.4 1.7 0.4 1.5 0.9 0.5 -0.2 -0.3 -0.2 -0.2 0.6 2.0 2.4 2.7 3.3 3.4 3.5 3.9 4.2 4.6 4.5 5.3 5.3 3.8 3.7 3.6 3.8 3.2 3.2 3.8 3.2 2.7 2.9 3.0 2.7 2.6 2.6 2.7 2.7 2.7
3.6 2.4 3.3 1.2 -0.2 0.2 0.2 -0.1 0.3 -0.0 0.0 0.2 0.5 1.2 2.1 2.8 3.3 3.3 3.1 4.1 4.3 4.8 5.3 5.4 6.1 5.5 4.0 4.3 4.0 4.0 3.5 3.0 3.6 3.4 3.0 2.5 2.3 2.3 2.7 2.8 2.4 2.5 2.7
4.7 4.6 2.7 0.2 -1.4 -0.6 0.6 0.8 0.5 0.3 0.5 1.0 1.4 2.2 2.0 3.3 3.7 3.0 3.6 4.4 4.4 4.7 5.0 5.4 6.3 4.9 3.9 4.6 5.0 4.6 4.5 3.7 3.6 3.2 3.2 2.8 2.5 2.6 2.5 2.4 1.8 1.5 2.4
3.7 3.1 2.1 0.9 -0.3 0.3 0.6 -0.3 0.1 1.1 1.6 1.7 1.9 2.7 2.5 3.2 4.0 3.6 4.6 4.3 3.6 3.7 4.3 5.4 4.5 4.2 4.9 5.5 5.1 4.3 4.0 4.1 3.3 3.6 3.7 3.6 3.8 3.9 3.5 2.7 2.3 2.3 2.6
2.7 2.1 1.7 1.9 1.3 2.3 2.3 1.6 2.0 1.9 2.5 2.8 2.4 3.1 3.3 4.0 4.1 5.1 4.9 3.5 3.3 3.6 4.3 4.4 4.0 3.5 4.2 4.4 4.6 4.8 4.4 4.0 4.0 3.9 4.1 4.2 4.0 3.9 4.0 3.7 3.4 3.5 3.4
Wind_Speed
2 2 3 4 7 9 11 10 11 10 8 6 5 4 4 5 4 4 5 4 3 2 1 2 3 4 4 6 6 5 7 5 4 4 2 6 7 11 9 11 13 17 25
7 5 5 5 7 10 13 11 10 9 7 5 3 3 5 4 5 5 8 9 8 6 4 3 3 4 5 7 8 8 7 6 5 3 1 3 3 6 11 10 10 14 19
13 10 10 10 10 11 13 13 13 12 9 8 7 6 5 4 3 4 3 5 6 5 5 6 5 7 7 7 9 10 12 9 6 10 4 3 5 2 5 13 11 12 10
13 13 13 12 11 10 12 14 14 14 10 9 9 9 5 4 2 2 1 3 5 7 9 10 10 9 9 11 10 10 11 11 10 6 10 11 6 7 3 4 11 13 15
18 16 13 12 10 9 11 11 12 12 11 10 10 7 7 5 3 1 4 5 5 7 10 11 11 10 9 11 13 13 13 11 11 11 9 11 10 9 7 9 5 10 12
18 17 14 12 10 8 10 11 13 11 10 11 10 9 7 4 2 1 3 4 5 6 9 12 10 11 12 12 12 13 16 14 13 12 12 11 7 8 8 9 9 8 9
20 19 18 15 14 13 12 11 14 12 10 10 8 6 5 3 1 2 3 6 6 7 10 11 11 11 14 14 13 14 15 15 14 16 12 11 12 12 12 10 12 10 4
19 19 18 16 15 14 13 13 13 12 9 7 6 4 3 1 2 3 5 6 7 9 12 12 13 15 16 15 15 12 12 14 13 18 14 10 11 11 12 13 13 12 10
21 21 18 16 16 14 13 13 13 10 7 5 3 3 1 2 4 7 8 8 10 10 13 14 14 14 13 12 15 11 14 12 13 13 15 15 14 13 13 13 14 15 13
21 20 18 17 14 13 11 10 10 9 6 4 2 1 3 4 6 8 11 12 12 13 13 14 14 15 15 15 13 12 13 13 12 11 15 17 15 15 12 12 15 15 16
20 19 17 15 13 12 12 10 9 8 5 3 1 2 4 6 8 9 10 11 13 13 14 13 13 13 15 16 14 13 14 14 15 16 16 19 17 14 13 12 15 16 15
21 20 17 15 13 12 11 10 8 6 4 2 1 3 5 8 9 10 11 11 12 12 12 13 14 13 13 15 15 16 15 16 17 17 17 18 12 17 13 13 18 17 17
21 19 16 15 13 12 10 8 6 5 3 1 2 5 7 8 9 10 10 12 13 14 14 14 14 14 13 13 14 14 13 14 13 14 17 19 18 18 15 17 17 12 16
19 17 15 15 14 11 9 6 5 4 2 1 3 6 8 8 9 10 11 12 13 14 12 12 12 13 14 13 14 14 13 13 13 15 16 18 19 20 19 17 18 16 15
19 17 16 13 13 11 8 6 5 4 2 2 4 6 7 8 9 10 11 10 10 12 11 12 11 12 12 8 11 13 14 14 15 16 17 18 21 29 25 14 16 16 15
18 16 15 15 13 11 9 7 5 4 2 2 4 5 6 8 9 10 11 10 10 10 11 10 11 12 8 16 19 17 13 14 15 15 16 17 23 24 31 32 32 21 16
18 16 15 14 12 11 9 8 6 4 1 3 2 3 6 4 8 10 10 10 9 10 10 10 11 11 11 18 20 21 13 13 13 15 14 14 13 20 19 26 33 32 30
18 16 14 12 11 8 8 8 5 2 1 3 4 5 6 5 5 6 6 7 7 7 8 8 9 9 9 19 20 21 13 12 12 12 13 14 18 17 16 17 18 23 20
18 17 14 12 10 10 9 7 5 3 2 2 5 6 6 5 6 7 8 7 6 6 7 7 9 9 10 19 19 16 10 10 11 10 12 13 10 19 11 5 4 12 9
18 18 15 12 11 10 9 8 6 3 0 4 5 6 6 7 7 6 7 5 5 7 6 6 6 10 9 15 19 15 6 8 8 9 11 19 15 21 20 10 14 15 13
16 14 14 12 11 11 9 7 4 1 1 3 4 5 5 6 6 6 5 4 6 6 5 5 5 6 9 10 19 19 7 7 7 7 9 8 20 20 22 19 11 14 16
19 15 12 10 11 10 8 7 4 4 2 3 2 3 4 4 4 5 4 4 4 5 5 6 6 5 6 12 15 18 17 14 8 9 8 9 21 22 20 15 22 22 15
16 12 12 11 9 9 8 6 3 4 2 1 2 3 2 3 3 3 4 4 3 4 4 5 6 6 8 8 14 15 16 13 8 8 11 19 20 20 16 21 18 14 9
14 13 14 12 9 6 7 6 4 2 1 2 2 2 1 2 2 3 3 3 2 3 3 5 5 6 8 9 8 7 8 10 8 9 8 9 11 15 14 12 12 9 8
13 13 12 11 10 9 6 4 4 3 2 2 1 1 0 2 3 3 3 1 2 3 3 1 4 7 7 7 12 12 8 7 8 6 8 9 9 9 9 9 9 8 9
13 12 11 12 11 9 8 7 6 5 3 2 0 1 1 2 2 1 2 8 8 7 6 2 7 6 10 12 14 17 17 17 14 9 9 9 9 10 9 9 9 9 10
Wind_Direction
188 117 106 134 125 129 139 142 139 144 145 143 136 127 128 125 112 93 87 76 54 36 264 253 288 312 275 280 277 263 270 255 243 263 265 256 238 227 233 229 231 218 212
179 154 139 156 158 141 137 132 124 121 119 117 103 105 131 109 97 82 71 64 54 40 16 349 330 320 307 299 292 283 277 268 175 214 273 288 244 233 231 215 218 221 216
177 159 150 140 139 135 133 130 124 119 106 106 114 111 112 99 74 47 52 28 19 9 352 332 309 298 291 283 282 273 265 268 242 208 216 242 235 185 191 222 225 216 211
173 162 151 140 131 121 120 121 118 113 108 110 95 90 92 96 68 61 358 337 346 336 326 318 311 300 292 282 275 270 262 257 253 226 221 232 247 253 270 233 217 213 208
175 166 156 144 132 135 126 118 108 100 99 99 104 104 103 98 107 356 330 328 323 317 313 312 306 298 291 283 278 273 260 252 252 248 238 236 232 229 238 262 229 223 218
172 166 161 152 142 142 133 126 116 108 107 101 97 103 120 143 169 248 298 306 307 304 297 298 290 282 279 279 279 277 269 264 260 254 248 246 238 231 238 251 257 243 223
174 170 169 164 152 153 145 134 125 119 115 112 114 123 135 155 211 287 286 290 290 286 287 297 300 301 297 290 285 281 275 268 261 251 242 240 244 250 249 241 254 248 215
176 174 169 164 160 158 154 141 135 131 130 128 135 144 145 164 249 276 293 292 294 293 300 301 302 297 292 289 287 281 272 268 263 256 250 251 252 251 254 255 252 253 237
176 173 169 168 164 163 157 146 140 136 135 126 137 176 190 309 306 303 301 302 299 300 301 297 293 285 286 279 282 276 271 265 262 263 262 260 256 252 252 254 252 246 245
173 173 172 170 167 158 151 147 140 141 137 140 174 355 334 308 301 297 296 304 303 303 301 300 295 292 289 279 274 271 272 275 276 271 265 263 260 256 247 248 253 245 238
173 170 170 169 162 155 155 150 148 146 147 151 98 316 312 313 309 307 310 310 308 311 308 303 294 287 285 284 276 270 272 265 264 263 262 265 261 256 253 248 251 249 237
171 169 166 163 159 165 163 163 156 151 148 140 277 312 320 321 319 316 310 311 306 303 301 300 298 294 299 294 289 284 277 274 269 267 266 264 263 261 258 250 240 249 241
168 169 168 166 167 170 167 164 163 160 161 148 350 333 321 313 308 305 303 310 310 307 307 303 299 294 289 289 284 277 284 284 282 281 277 271 264 261 257 253 261 250 236
169 169 169 171 170 169 167 162 162 169 148 42 338 312 309 313 310 314 319 313 311 310 304 297 296 294 299 299 299 292 291 287 284 282 278 274 266 262 257 248 241 252 251
174 177 170 170 168 167 165 166 157 156 114 335 315 308 315 316 324 318 313 307 306 305 303 302 304 307 308 301 309 302 297 292 288 283 275 268 262 257 253 250 241 231 241
175 173 167 166 170 170 172 165 160 146 138 288 307 314 327 317 311 311 314 317 311 308 311 313 321 320 317 311 316 314 309 299 286 283 280 277 274 267 254 244 239 232 227
169 166 172 171 173 175 167 165 154 140 141 299 268 300 303 279 309 322 322 319 312 318 322 328 326 322 322 319 322 319 304 297 288 284 284 283 276 270 261 245 230 226 225
168 165 169 175 172 155 145 129 139 140 229 274 291 306 319 296 300 304 306 303 303 322 328 330 325 320 319 321 326 317 301 296 291 291 291 287 285 284 271 248 229 213 211
168 158 171 169 151 154 138 145 159 177 216 286 324 327 313 316 313 316 313 311 313 328 336 331 318 323 321 331 333 325 312 308 314 313 311 327 332 340 323 72 113 176 164
169 158 152 148 138 154 152 162 170 173 311 339 320 311 330 323 314 310 307 298 312 331 334 322 322 323 324 329 344 353 327 332 337 336 345 6 16 24 30 72 104 101 111
146 143 142 147 158 159 160 158 142 98 11 302 299 325 327 314 307 299 288 312 334 334 325 333 325 315 326 347 5 12 0 358 348 354 359 10 39 43 51 56 79 101 107
146 144 142 136 156 158 157 136 128 132 211 244 293 298 300 304 296 291 306 327 327 337 345 352 342 346 341 2 10 18 27 18 19 11 2 13 46 52 57 69 84 90 97
142 142 141 149 149 153 142 138 159 148 196 249 253 259 283 291 286 313 346 328 339 355 358 7 351 360 15 11 6 12 19 18 29 24 24 31 38 45 49 53 61 77 95
141 157 150 150 151 143 137 140 127 127 196 243 253 239 304 335 327 27 341 336 4 15 30 13 351 19 31 18 7 10 10 9 21 14 24 32 43 49 46 47 48 55 70
148 152 157 154 148 151 146 128 127 155 192 221 252 273 357 343 10 43 350 10 41 29 36 358 53 52 41 25 26 29 25 21 17 27 38 37 36 46 49 50 54 62 72
148 144 141 138 143 145 151 159 159 171 141 168 297 358 17 13 13 119 124 61 72 53 82 80 93 78 65 51 46 44 39 36 31 47 46 44 44 47 49 60 66 68 79